Regional Weather Roundup
Issued by NWS

Home | Current Version | Previous Version | Graphics & Text | Print | Product List | Glossary On
Versions: 1 2 3 4 5 6 7 8 9 10 11 12 13 14 15 16 17 18 19 20 21 22 23 24 25 26 27 28 29 30 31 32 33 34 35 36 37 38 39 40 41 42 43 44 45 46 47 48 49 50
000
ASUS44 KMEG 241910
RWRTN
TENNESSEE HOURLY STATE WEATHER ROUNDUP
NATIONAL WEATHER SERVICE MEMPHIS TN
200 PM CDT FRI OCT 24 2014

TNZ002-004-019-021-049-052-054-088>092-242000-
WEST TENNESSEE

CITY           SKY/WX    TMP DP  RH WIND       PRES   REMARKS
MEMPHIS INTL   MOSUNNY   73  51  46 N7        30.11F
NWS MEMPHIS      N/A     71 N/A N/A MISG        N/A
JACKSON        SUNNY     71  51  49 VRB3      30.10F
DYERSBURG      MOSUNNY   70  46  43 NW8       30.11F
UNION CITY     PTSUNNY   68  54  60 VRB7      30.09F
PARIS          MOSUNNY   66  52  59 N6        30.10F
HUNTINGDON     SUNNY     67  50  54 VRB3      30.10F
LEXINGTON      SUNNY     70  43  37 CALM      30.09F
SAVANNAH       SUNNY     70  45  40 N6        30.10F
$$

TNZ008-025-027-028-033-062-065-066-242000-
NORTH MIDDLE TENNESSEE

CITY           SKY/WX    TMP DP  RH WIND       PRES   REMARKS
NASHVILLE      MOSUNNY   70  43  37 VRB6      30.09F
CLARKSVILLE    PTSUNNY   67  40  37 VRB3      30.09F
SMYRNA         SUNNY     69  42  37 VRB3      30.09F
COOKEVILLE     SUNNY     66  43  42 N6        30.07F
CROSSVILLE     SUNNY     67  32  27 NE7       30.07F
$$

TNZ061-075-076-078-094-096-097-242000-
SOUTH MIDDLE TENNESSEE

CITY           SKY/WX    TMP DP  RH WIND       PRES   REMARKS
FAYETTEVILLE   SUNNY     66  39  37 N8        30.08F
TULLAHOMA      SUNNY     66  41  39 NW7       30.08F
WINCHESTER     SUNNY     66  39  37 N8        30.08S
MCMINNVILLE    SUNNY     66  46  48 CALM      30.08F
COLUMBIA       SUNNY     70  41  35 NE3       30.07F
SHELBYVILLE    SUNNY     68  43  40 N3        30.09F
$$

TNZ017-018-042-046-047-242000-
NORTHEAST TENNESSEE

CITY           SKY/WX    TMP DP  RH WIND       PRES   REMARKS
TRI CITIES     PTSUNNY   63  41  44 NW5       30.06F
ELIZABETHTON   CLEAR     63  39  42 SW7       30.04F
$$

TNZ012-013-036-069-073-074-242000-
CENTRAL EAST TENNESSEE

CITY           SKY/WX    TMP DP  RH WIND       PRES   REMARKS
KNOXVILLE      MOSUNNY   65  43  44 VRB6      30.05F
OAK RIDGE      SUNNY     67  45  45 N3        30.06F
GATLINBURG     CLEAR     63  37  39 CALM      30.06S
MORRISTOWN     CLEAR     63  45  51 N5        30.07F
$$

TNZ083-085-099-242000-
SOUTHEAST TENNESSEE

CITY           SKY/WX    TMP DP  RH WIND       PRES   REMARKS
CHATTANOOGA    MOSUNNY   69  41  36 N5        30.05F
$$

SKY/WX REPORTED AS FAIR MEANS FEW OR NO CLOUDS BELOW
12 THOUSAND FEET.




USA.gov is the U.S. government's official web portal to all federal, state and local government web resources and services.